This is the latest recevied weather packets stored in our database for station/object K3HM. If no packets are shown the sender has not sent any weather packets the latest 10 day(s).
| Time | Temp. | Humidity | Pressure | Rain* | Wind** | Luminosity | Snow |
|---|---|---|---|---|---|---|---|
| 1777680407 | 5.56° C | 93% | 1012.3 hPa | 0 mm | - | 1 W/m² | - |
| 1777680105 | 6.11° C | 93% | 1012.6 hPa | 1.27 mm | - | 2 W/m² | - |
| 1777679800 | 6.11° C | 92% | 1012.4 hPa | 1.27 mm | - | 2 W/m² | - |
| 1777679497 | 6.11° C | 92% | 1012.4 hPa | 1.27 mm | - | 3 W/m² | - |
| 1777679192 | 6.11° C | 91% | 1012.4 hPa | 0 mm | - | 4 W/m² | - |
| 1777678890 | 6.11° C | 90% | 1012.3 hPa | 0 mm | - | 12 W/m² | - |
| 1777678588 | 6.67° C | 89% | 1012.3 hPa | 0 mm | - | 9 W/m² | - |
| 1777678285 | 6.67° C | 89% | 1012.3 hPa | 0 mm | - | 11 W/m² | - |
| 1777677981 | 6.67° C | 89% | 1012.3 hPa | 0 mm | - | 11 W/m² | - |
| 1777677679 | 7.22° C | 87% | 1012.3 hPa | 0 mm | - | 24 W/m² | - |
| 1777677376 | 7.22° C | 85% | 1012.3 hPa | 0 mm | - | 18 W/m² | - |
| 1777677074 | 7.22° C | 82% | 1012.2 hPa | 0 mm | - | 17 W/m² | - |
| 1777676772 | 7.78° C | 81% | 1012.2 hPa | 0 mm | - | 24 W/m² | - |
| 1777676470 | 7.78° C | 80% | 1011.9 hPa | 0 mm | - | 48 W/m² | - |
| 1777676168 | 8.33° C | 79% | 1012 hPa | 0 mm | - | 32 W/m² | - |
| 1777675863 | 8.33° C | 76% | 1012 hPa | 0 mm | - | 64 W/m² | - |
| 1777675561 | 8.33° C | 73% | 1011.8 hPa | 0 mm | - | 74 W/m² | - |
| 1777675258 | 8.89° C | 72% | 1011.9 hPa | 0 mm | - | 69 W/m² | - |
| 1777674954 | 8.89° C | 71% | 1011.6 hPa | 0 mm | - | 79 W/m² | - |
| 1777674651 | 9.44° C | 68% | 1011.6 hPa | 0 mm | - | 63 W/m² | - |
| 1777674358 | 10° C | 66% | 1011.6 hPa | 0 mm | - | 136 W/m² | - |
| 1777674045 | 10° C | 64% | 1011.5 hPa | 0 mm | - | 106 W/m² | - |
| 1777673740 | 10° C | 64% | 1011.6 hPa | 0 mm | - | 162 W/m² | - |
| 1777673438 | 10° C | 64% | 1011.8 hPa | 0 mm | - | 139 W/m² | - |
| 1777673136 | 10° C | 64% | 1011.5 hPa | 0 mm | - | 108 W/m² | - |
* Rain latest hour (hover to see other rain measurements)
** Current wind speed in m/s (hover to see current wind gust speed)